Weather History for KRIL - February, 2014

Change the Weather History Date:

Tuesday, February 4, 2014

  Actual Average Record
Temperature  
Mean Temperature 19 °F 28 °F  
Max Temperature 29 °F 39 °F 64 °F (1934)
Min Temperature 8 °F 16 °F -12 °F (1933)
Degree Days  
Heating Degree Days 46 38  
Month to date heating degree days 196 152  
Since 1 July heating degree days 4487 4187  
Cooling Degree Days 0 0  
Month to date cooling degree days 0 0  
Year to date cooling degree days 0 0  
Moisture  
Dew Point 19 °F    
Average Humidity 74    
Maximum Humidity 96    
Minimum Humidity 52    
Precipitation  
Precipitation 0.12 in 0.02 in 0.73 in (1989)
Month to date precipitation 0.13 0.08  
Year to date precipitation 1.12 0.89  
Sea Level Pressure  
Sea Level Pressure 29.84 in    
Wind  
Wind Speed 3 mph (WNW)    
Max Wind Speed 28 mph    
Max Gust Speed 33 mph    
Visibility 4 miles    
Events Fog , Snow    
T = Trace of Precipitation, MM = Missing Value Source: NWS Daily Summary

Daily Weather History Graph

Daily Weather History Graph

Search for Another Location

Airport or City:

Trip Planner

Search our weather history database for the weather conditions in past years. The results will help you decide how hot, cold, wet, or windy it might be!

Date:

Astronomy

Feb. 04, 2014 Rise Set
Actual Time 7:15 AM MST 5:34 PM MST
Civil Twilight 6:47 AM MST 6:02 PM MST
Nautical Twilight 6:15 AM MST 6:34 PM MST
Astronomical Twilight 5:43 AM MST 7:06 PM MST
Moon 9:56 AM MST 11:30 PM MST
Length of Visible Light 11h 15m
Length of Day
10h 19m
Waxing Crescent, 29% of the Moon is Illuminated
Feb 4
Waxing Crescent
Feb 6
First Quarter
Feb 14
Full
Feb 22
Last Quarter
Mar 1
New

Hourly Weather History & Observations

Time (MST) Temp. Windchill Dew Point Humidity Pressure Visibility Wind Dir Wind Speed Gust Speed Precip Events Conditions
12:10 AM 24.1 °F - 21.9 °F 91% 29.78 in 2.0 mi Calm Calm - 0.00 in Snow Light Snow
12:18 AM 24.1 °F - 21.9 °F 91% 29.78 in 2.5 mi Calm Calm - 0.00 in Snow Light Snow
12:35 AM 23.0 °F - 21.0 °F 92% 29.78 in 3.0 mi Calm Calm - 0.00 in Snow Light Snow
12:42 AM 23.0 °F - 21.0 °F 92% 29.78 in 6.0 mi Calm Calm - 0.00 in Snow Light Snow
12:53 AM 23.0 °F - 21.0 °F 92% 29.87 in 2.5 mi Calm Calm - 0.00 in Snow Light Snow
1:01 AM 23.0 °F - 21.0 °F 92% 29.77 in 1.5 mi Calm Calm - 0.00 in Snow Light Snow
1:34 AM 24.1 °F - 21.0 °F 88% 29.78 in 2.0 mi Calm Calm - 0.01 in Snow Light Snow
1:53 AM 24.1 °F - 21.9 °F 91% 29.86 in 1.8 mi Calm Calm - 0.01 in Snow Light Snow
2:23 AM 23.0 °F - 21.0 °F 92% 29.78 in 2.0 mi Calm Calm - 0.01 in Snow Light Snow
2:35 AM 23.0 °F - 21.0 °F 92% 29.77 in 2.5 mi Calm Calm - 0.01 in Snow Light Snow
2:46 AM 23.0 °F - 21.0 °F 92% 29.78 in 2.5 mi Calm Calm - 0.01 in Snow Light Snow
2:48 AM 23.0 °F - 21.2 °F 93% 29.78 in 3.0 mi Calm Calm - 0.01 in Snow Light Snow
2:53 AM 23.0 °F - 21.0 °F 92% 29.86 in 3.0 mi Calm Calm - 0.01 in Snow Light Snow
3:49 AM 19.4 °F - 17.6 °F 93% 29.77 in 10.0 mi Calm Calm - 0.00 in   Overcast
3:50 AM 19.4 °F - 17.6 °F 93% 29.77 in 10.0 mi Calm Calm - 0.00 in   Overcast
3:53 AM 21.0 °F - 18.0 °F 88% 29.86 in 10.0 mi Calm Calm - 0.00 in   Overcast
3:59 AM 19.9 °F - 18.0 °F 92% 29.77 in 10.0 mi Calm Calm - N/A   Overcast
4:09 AM 21.0 °F 16.2 °F 18.0 °F 88% 29.77 in 8.0 mi ESE 3.5 mph - N/A   Overcast
4:42 AM 19.0 °F 12.3 °F 17.1 °F 92% 29.77 in 10.0 mi ESE 4.6 mph - N/A   Overcast
4:53 AM 19.9 °F 13.4 °F 18.0 °F 92% 29.86 in 7.0 mi South 4.6 mph - 0.00 in Snow Light Snow
5:04 AM 21.0 °F 16.2 °F 18.0 °F 88% 29.77 in 5.0 mi South 3.5 mph - 0.00 in Snow Light Snow
5:53 AM 19.9 °F - 18.0 °F 92% 29.86 in 4.0 mi Calm Calm - 0.00 in Snow Light Snow
6:24 AM 21.0 °F - 19.0 °F 92% 29.76 in 2.5 mi Calm Calm - 0.00 in Snow Light Snow
6:35 AM 21.0 °F - 19.0 °F 92% 29.76 in 1.2 mi Calm Calm - 0.00 in Snow Light Snow
6:41 AM 21.9 °F - 19.0 °F 89% 29.76 in 1.0 mi Calm Calm - 0.00 in Snow Light Snow
6:50 AM 21.2 °F - 19.4 °F 93% 29.77 in 1.0 mi Calm Calm - 0.01 in Snow Light Snow
6:53 AM 21.9 °F - 19.9 °F 92% 29.86 in 1.2 mi Calm Calm - 0.01 in Snow Light Snow
7:09 AM 21.0 °F - 19.0 °F 92% 29.77 in 1.5 mi Calm Calm - 0.01 in Snow Light Snow
7:17 AM 21.0 °F - 19.0 °F 92% 29.77 in 1.8 mi Calm Calm - 0.01 in Snow Light Snow
7:35 AM 21.9 °F 17.2 °F 19.9 °F 92% 29.77 in 0.8 mi ESE 3.5 mph - 0.01 in Snow Light Snow
7:51 AM 21.2 °F - 19.4 °F 93% 29.77 in 0.5 mi Calm Calm - 0.02 in Fog , Snow Snow
7:53 AM 21.9 °F - 19.9 °F 92% 29.87 in 0.5 mi Calm Calm - 0.02 in Fog , Snow Snow
8:00 AM 21.9 °F - 19.9 °F 92% 29.78 in 0.5 mi Calm Calm - 0.00 in Fog , Snow Snow
8:53 AM 23.0 °F - 21.9 °F 96% 29.88 in 0.8 mi Calm Calm - 0.03 in Snow Light Snow
9:04 AM 24.1 °F - 21.0 °F 88% 29.79 in 0.8 mi Calm Calm - 0.00 in Snow Light Snow
9:16 AM 23.0 °F - 21.9 °F 96% 29.79 in 1.0 mi Calm Calm - 0.01 in Snow Light Snow
9:40 AM 24.1 °F - 21.9 °F 91% 29.80 in 0.8 mi Calm Calm - 0.01 in Snow Light Snow
9:53 AM 24.1 °F - 21.9 °F 91% 29.90 in 0.8 mi Calm Calm - 0.02 in Snow Light Snow
10:02 AM 24.1 °F - 21.9 °F 91% 29.80 in 0.5 mi Calm Calm - 0.01 in Fog , Snow Snow
10:26 AM 24.1 °F - 21.9 °F 91% 29.81 in 1.2 mi Calm Calm - 0.01 in Snow Light Snow
10:33 AM 25.0 °F - 23.0 °F 92% 29.81 in 1.2 mi Calm Calm - 0.01 in Snow Light Snow
10:49 AM 26.6 °F - 21.2 °F 80% 29.81 in 1.0 mi Calm Calm - 0.01 in Snow Light Snow
10:53 AM 26.1 °F - 21.9 °F 84% 29.89 in 1.5 mi Calm Calm - 0.01 in Snow Light Snow
11:03 AM 25.0 °F - 21.9 °F 88% 29.81 in 2.5 mi Calm Calm - 0.00 in Snow Light Snow
11:10 AM 26.1 °F 21.9 °F 21.9 °F 84% 29.81 in 3.0 mi NE 3.5 mph - 0.00 in Snow Light Snow
11:25 AM 26.1 °F 21.9 °F 21.9 °F 84% 29.80 in 4.0 mi ENE 3.5 mph - 0.00 in Snow Light Snow
11:31 AM 26.1 °F 20.5 °F 23.0 °F 88% 29.80 in 5.0 mi ENE 4.6 mph - 0.00 in   Overcast
11:53 AM 28.0 °F - 21.9 °F 78% 29.87 in 7.0 mi Calm Calm - 0.00 in Snow Light Snow
12:53 PM 28.0 °F - 21.0 °F 75% 29.86 in 10.0 mi North - - 0.00 in   Mostly Cloudy
1:00 PM 26.1 °F 10.7 °F 21.0 °F 81% 29.79 in 1.8 mi NW 25.3 mph 32.2 mph 0.01 in Snow Light Snow
1:04 PM 25.0 °F 8.9 °F 21.0 °F 85% 29.79 in 0.8 mi NW 26.5 mph 33.4 mph 0.01 in Snow Light Snow
1:11 PM 25.0 °F 10.9 °F 21.0 °F 85% 29.79 in 0.2 mi NW 19.6 mph 33.4 mph 0.01 in Fog , Snow Snow
1:22 PM 26.1 °F 15.0 °F 21.0 °F 81% 29.79 in 0.5 mi NNW 12.7 mph - 0.01 in Snow Snow
1:25 PM 26.1 °F 15.6 °F 21.0 °F 81% 29.79 in 1.8 mi NW 11.5 mph - 0.01 in Snow Light Snow
1:32 PM 26.1 °F 15.0 °F 19.9 °F 78% 29.79 in 9.0 mi NNW 12.7 mph - 0.01 in   Overcast
1:36 PM 26.1 °F 14.5 °F 19.0 °F 75% 29.79 in 9.0 mi NW 13.8 mph - 0.01 in   Overcast
1:53 PM 26.1 °F 14.5 °F 18.0 °F 71% 29.89 in 5.0 mi WNW 13.8 mph - 0.01 in Snow Light Snow
2:12 PM 25.0 °F 11.7 °F 19.0 °F 78% 29.82 in 1.8 mi WNW 17.3 mph - 0.00 in Snow Light Snow
2:16 PM 25.0 °F 12.2 °F 19.0 °F 78% 29.82 in 1.0 mi WNW 16.1 mph - 0.00 in Snow Light Snow
2:24 PM 24.1 °F 13.1 °F 19.9 °F 84% 29.82 in 0.5 mi West 11.5 mph - 0.00 in Fog , Snow Snow
2:37 PM 24.1 °F 16.0 °F 21.0 °F 88% 29.81 in 1.2 mi West 6.9 mph - 0.00 in Snow Light Snow
2:43 PM 24.1 °F 17.0 °F 19.9 °F 84% 29.82 in 3.0 mi West 5.8 mph - 0.00 in Snow Light Snow
2:53 PM 24.1 °F 18.2 °F 19.9 °F 84% 29.91 in 5.0 mi SW 4.6 mph - 0.00 in Snow Light Snow
3:06 PM 25.0 °F - 19.0 °F 78% 29.83 in 10.0 mi Calm Calm - 0.00 in   Overcast
3:53 PM 26.1 °F 21.9 °F 17.1 °F 69% 29.94 in 10.0 mi WSW 3.5 mph - 0.00 in   Overcast
4:53 PM 25.0 °F 15.5 °F 10.0 °F 53% 29.98 in 10.0 mi NW 9.2 mph - N/A   Overcast
5:53 PM 23.0 °F 12.4 °F 9.0 °F 55% 30.03 in 10.0 mi NW 10.4 mph - N/A   Overcast
6:53 PM 21.0 °F 16.2 °F 7.0 °F 55% 30.07 in 10.0 mi Variable 3.5 mph - N/A   Overcast
7:53 PM 19.0 °F 10.0 °F 6.1 °F 57% 30.10 in 10.0 mi WNW 6.9 mph - N/A   Overcast
8:53 PM 18.0 °F 6.9 °F 5.0 °F 57% 30.13 in 10.0 mi West 9.2 mph - N/A   Overcast
9:53 PM 18.0 °F - 5.0 °F 57% 30.15 in 10.0 mi Calm Calm - N/A   Overcast
10:53 PM 12.0 °F 4.1 °F 5.0 °F 73% 30.18 in 10.0 mi SW 4.6 mph - N/A   Mostly Cloudy
11:53 PM 9.0 °F 2.4 °F 1.9 °F 73% 30.21 in 10.0 mi SSW 3.5 mph - N/A   Clear